GFSMA_prec_precacc_105.txt.gz
Total_Precipitation_Accumulation
0.60 0.33 0.11 0.14 0.17 0.11 0.21 0.41 0.68 0.57 0.43 0.35 0.37 0.37 0.15 0.15 0.23 0.18 0.15 0.13 0.11 0.08 0.02 0.04 0.05 0.03 0.02 0.02 0.03 0.02 0.01 0.01 0.02 0.05 0.07 0.08 0.10 0.16 0.19 0.21 0.22 0.17 0.21
0.36 0.32 0.17 0.15 0.12 0.12 0.19 0.33 0.60 0.60 0.54 0.35 0.36 0.23 0.11 0.15 0.14 0.15 0.12 0.08 0.06 0.04 0.03 0.04 0.07 0.05 0.04 0.03 0.03 0.02 0.01 0.02 0.01 0.02 0.05 0.08 0.08 0.10 0.12 0.16 0.23 0.28 0.23
0.23 0.27 0.29 0.32 0.19 0.11 0.21 0.41 0.57 0.69 0.58 0.45 0.33 0.21 0.17 0.19 0.13 0.09 0.09 0.06 0.03 0.01 0.02 0.05 0.05 0.07 0.06 0.03 0.02 0.01 0.01 0.02 0.02 0.02 0.02 0.05 0.06 0.06 0.11 0.10 0.16 0.28 0.35
0.27 0.25 0.32 0.48 0.43 0.23 0.19 0.28 0.44 0.76 0.52 0.36 0.26 0.22 0.19 0.20 0.14 0.12 0.08 0.04 0.01 0.00 0.01 0.02 0.04 0.05 0.05 0.03 0.02 0.01 0.01 0.01 0.01 0.02 0.02 0.02 0.03 0.05 0.05 0.08 0.19 0.41 0.42
0.29 0.19 0.31 0.42 0.47 0.41 0.30 0.24 0.36 0.49 0.50 0.38 0.25 0.18 0.16 0.12 0.11 0.14 0.10 0.04 0.01 0.00 0.00 0.01 0.02 0.02 0.04 0.04 0.03 0.03 0.03 0.02 0.01 0.01 0.01 0.00 0.01 0.03 0.05 0.15 0.26 0.36 0.41
0.35 0.21 0.31 0.59 0.53 0.45 0.32 0.23 0.39 0.47 0.37 0.41 0.50 0.22 0.23 0.16 0.11 0.10 0.11 0.08 0.02 0.00 0.00 0.00 0.01 0.01 0.01 0.03 0.03 0.02 0.04 0.04 0.04 0.02 0.01 0.01 0.01 0.01 0.02 0.07 0.25 0.46 0.48
0.50 0.31 0.24 0.41 0.80 0.62 0.39 0.22 0.32 0.49 0.57 0.40 0.70 0.74 0.46 0.31 0.16 0.13 0.10 0.09 0.04 0.02 0.01 0.00 0.00 0.00 0.00 0.00 0.02 0.01 0.03 0.05 0.06 0.06 0.04 0.02 0.02 0.01 0.00 0.02 0.06 0.15 0.39
0.59 0.50 0.25 0.20 0.40 0.69 0.72 0.38 0.29 0.46 0.50 0.45 0.47 0.55 0.75 0.67 0.39 0.24 0.21 0.10 0.05 0.03 0.02 0.01 0.00 0.00 0.00 0.00 0.00 0.00 0.01 0.02 0.05 0.10 0.10 0.07 0.05 0.02 0.01 0.02 0.03 0.06 0.11
0.59 0.60 0.45 0.33 0.27 0.48 0.65 0.57 0.30 0.26 0.54 0.47 0.34 0.38 0.44 0.42 0.28 0.20 0.19 0.13 0.05 0.01 0.02 0.05 0.03 0.01 0.00 0.00 0.00 0.00 0.00 0.00 0.02 0.06 0.15 0.14 0.08 0.04 0.02 0.02 0.03 0.04 0.03
0.75 0.56 0.66 0.64 0.41 0.39 0.50 0.48 0.35 0.31 0.74 0.61 0.53 0.25 0.17 0.20 0.35 0.32 0.15 0.14 0.06 0.01 0.01 0.04 0.04 0.03 0.03 0.01 0.00 0.00 0.00 0.00 0.00 0.00 0.02 0.07 0.10 0.09 0.06 0.05 0.05 0.05 0.06
1.00 0.83 0.74 0.78 0.62 0.47 0.52 0.71 0.59 0.53 0.72 0.49 0.26 0.26 0.20 0.18 0.23 0.20 0.20 0.18 0.09 0.03 0.03 0.03 0.03 0.03 0.07 0.07 0.07 0.06 0.04 0.01 0.00 0.00 0.00 0.01 0.04 0.08 0.09 0.09 0.10 0.10 0.12
1.08 1.06 1.01 0.88 0.70 0.56 0.51 0.62 0.70 0.80 0.78 0.71 0.50 0.45 0.35 0.28 0.20 0.21 0.18 0.19 0.25 0.18 0.10 0.05 0.01 0.02 0.07 0.10 0.12 0.10 0.09 0.08 0.07 0.03 0.01 0.01 0.01 0.03 0.07 0.11 0.13 0.16 0.18
1.34 0.88 0.86 0.84 0.76 0.58 0.48 0.48 0.60 0.56 0.58 0.56 0.49 0.42 0.31 0.26 0.28 0.35 0.34 0.27 0.21 0.11 0.03 0.00 0.00 0.00 0.07 0.20 0.22 0.22 0.19 0.13 0.10 0.09 0.09 0.08 0.06 0.04 0.06 0.07 0.09 0.14 0.21
0.86 0.61 0.74 0.80 0.77 0.68 0.62 0.50 0.51 0.44 0.44 0.48 0.44 0.42 0.36 0.24 0.20 0.21 0.23 0.29 0.23 0.09 0.03 0.02 0.00 0.00 0.00 0.03 0.11 0.17 0.15 0.10 0.11 0.16 0.19 0.16 0.11 0.08 0.07 0.05 0.04 0.04 0.06
0.78 0.71 0.79 0.80 0.84 0.78 0.66 0.63 0.55 0.51 0.47 0.48 0.45 0.47 0.37 0.23 0.18 0.17 0.17 0.23 0.43 0.33 0.06 0.02 0.01 0.00 0.01 0.01 0.04 0.09 0.15 0.13 0.08 0.07 0.07 0.09 0.11 0.11 0.11 0.09 0.07 0.04 0.03
0.74 0.82 0.86 0.81 0.80 0.84 0.80 0.72 0.63 0.57 0.55 0.52 0.47 0.49 0.49 0.37 0.31 0.26 0.27 0.26 0.29 0.44 0.34 0.06 0.05 0.05 0.07 0.07 0.04 0.08 0.07 0.09 0.06 0.05 0.07 0.08 0.08 0.08 0.10 0.10 0.09 0.13 0.11
0.82 0.89 0.90 0.86 0.83 0.85 0.89 0.94 0.78 0.70 0.71 0.70 0.66 0.66 0.54 0.47 0.42 0.42 0.47 0.53 0.53 0.59 0.61 0.28 0.16 0.15 0.18 0.12 0.07 0.05 0.07 0.06 0.06 0.08 0.11 0.13 0.14 0.12 0.12 0.14 0.13 0.14 0.16
0.31 0.36 0.48 0.64 0.65 0.87 0.91 0.99 0.97 0.78 0.73 0.90 0.94 0.84 0.72 0.66 0.64 0.55 0.52 0.44 0.37 0.30 0.39 0.33 0.15 0.11 0.11 0.14 0.13 0.09 0.07 0.06 0.09 0.13 0.15 0.13 0.18 0.21 0.14 0.10 0.14 0.15 0.12
0.26 0.22 0.27 0.36 0.41 0.60 0.91 0.96 1.00 0.92 0.98 1.00 0.93 0.79 0.65 0.59 0.57 0.47 0.38 0.31 0.24 0.26 0.28 0.37 0.25 0.15 0.13 0.14 0.17 0.14 0.12 0.14 0.09 0.10 0.16 0.18 0.20 0.18 0.27 0.22 0.18 0.19 0.21
0.17 0.15 0.15 0.22 0.30 0.39 0.65 0.91 1.00 1.02 0.75 0.71 0.74 0.66 0.58 0.50 0.37 0.33 0.33 0.30 0.29 0.31 0.32 0.32 0.36 0.26 0.18 0.14 0.21 0.23 0.20 0.21 0.24 0.23 0.26 0.26 0.33 0.32 0.34 0.45 0.48 0.41 0.34
0.18 0.19 0.16 0.16 0.25 0.39 0.59 0.66 0.69 0.75 0.78 0.69 0.57 0.65 0.55 0.58 0.61 0.45 0.38 0.40 0.42 0.45 0.43 0.44 0.42 0.33 0.28 0.28 0.30 0.30 0.36 0.33 0.37 0.36 0.32 0.27 0.29 0.39 0.48 0.62 0.64 0.61 0.60
0.25 0.23 0.25 0.34 0.45 0.44 0.55 0.48 0.66 0.92 0.90 0.85 0.73 0.61 0.71 0.79 0.74 0.78 0.58 0.49 0.56 0.67 0.66 0.54 0.49 0.53 0.44 0.44 0.44 0.52 0.56 0.55 0.58 0.50 0.52 0.52 0.47 0.50 0.53 0.64 0.98 0.84 0.65
0.41 0.40 0.49 0.48 0.33 0.18 0.43 0.39 0.52 0.65 1.01 0.86 0.89 0.83 0.78 0.73 0.77 0.62 0.69 0.67 0.60 0.61 0.64 0.61 0.67 0.62 0.64 0.66 0.79 0.94 1.02 1.12 1.15 1.05 1.04 1.01 0.80 0.72 0.64 0.76 0.94 0.64 0.60
0.57 0.54 0.44 0.34 0.30 0.38 0.45 0.39 0.53 0.38 0.51 0.69 0.75 0.77 0.73 0.70 0.80 0.71 0.59 0.60 0.53 0.53 0.62 0.71 0.95 1.27 1.42 1.43 1.54 1.66 1.72 1.74 1.70 1.49 1.28 1.20 0.96 0.86 0.73 0.68 0.90 0.62 0.55
0.37 0.34 0.38 0.34 0.32 0.36 0.57 0.38 0.34 0.18 0.40 0.61 0.71 0.86 0.96 0.88 1.41 1.32 0.92 1.04 1.32 1.42 1.66 1.56 1.40 1.47 1.48 1.30 1.12 1.07 1.15 1.33 1.53 1.34 1.15 1.14 1.06 1.01 0.93 0.84 0.79 0.67 0.49
0.30 0.27 0.31 0.25 0.46 0.27 0.58 0.40 0.32 0.16 0.39 0.61 0.78 0.92 1.44 1.09 1.44 1.21 1.02 0.93 1.34 1.64 1.50 1.53 1.48 1.35 1.15 1.05 1.09 0.87 0.82 1.05 1.13 1.15 0.97 1.09 0.95 0.98 0.95 0.67 0.55 0.46 0.37

GFSMA_prec_precacc_108.txt.gz
Total_Precipitation_Accumulation
0.60 0.33 0.11 0.14 0.17 0.11 0.21 0.41 0.68 0.57 0.43 0.36 0.37 0.37 0.15 0.15 0.23 0.19 0.18 0.32 0.32 0.31 0.07 0.05 0.05 0.04 0.02 0.02 0.04 0.02 0.01 0.02 0.02 0.06 0.07 0.08 0.10 0.16 0.19 0.21 0.22 0.17 0.21
0.36 0.32 0.17 0.15 0.12 0.12 0.19 0.33 0.60 0.60 0.55 0.35 0.36 0.23 0.12 0.15 0.14 0.17 0.16 0.22 0.28 0.26 0.15 0.06 0.07 0.05 0.04 0.03 0.04 0.02 0.01 0.03 0.02 0.02 0.06 0.09 0.09 0.10 0.13 0.16 0.23 0.28 0.23
0.23 0.27 0.29 0.32 0.19 0.11 0.21 0.41 0.57 0.74 0.61 0.47 0.33 0.21 0.17 0.19 0.13 0.10 0.17 0.16 0.17 0.17 0.12 0.08 0.06 0.07 0.06 0.03 0.03 0.02 0.02 0.03 0.03 0.02 0.03 0.06 0.07 0.06 0.11 0.11 0.17 0.28 0.35
0.27 0.25 0.32 0.48 0.43 0.23 0.19 0.28 0.44 0.77 0.57 0.37 0.27 0.23 0.20 0.20 0.14 0.12 0.11 0.15 0.15 0.10 0.06 0.04 0.04 0.05 0.06 0.03 0.03 0.02 0.02 0.02 0.02 0.03 0.02 0.02 0.04 0.05 0.05 0.08 0.19 0.41 0.42
0.29 0.19 0.31 0.42 0.47 0.41 0.30 0.24 0.36 0.50 0.51 0.39 0.25 0.18 0.17 0.13 0.12 0.16 0.15 0.15 0.18 0.15 0.03 0.01 0.02 0.02 0.04 0.05 0.04 0.04 0.04 0.03 0.03 0.02 0.02 0.01 0.01 0.04 0.06 0.15 0.26 0.36 0.41
0.35 0.21 0.31 0.59 0.53 0.46 0.32 0.23 0.39 0.48 0.38 0.42 0.50 0.23 0.24 0.18 0.12 0.12 0.13 0.18 0.17 0.22 0.08 0.00 0.01 0.01 0.01 0.04 0.04 0.03 0.05 0.05 0.05 0.03 0.02 0.02 0.02 0.01 0.03 0.07 0.25 0.46 0.48
0.50 0.31 0.24 0.41 0.80 0.63 0.39 0.22 0.32 0.49 0.59 0.40 0.71 0.75 0.48 0.34 0.19 0.16 0.12 0.14 0.13 0.13 0.10 0.01 0.00 0.00 0.00 0.01 0.03 0.02 0.04 0.07 0.07 0.07 0.05 0.03 0.03 0.01 0.01 0.02 0.06 0.15 0.39
0.59 0.51 0.26 0.20 0.40 0.69 0.72 0.38 0.29 0.47 0.51 0.46 0.49 0.58 0.81 0.84 0.54 0.31 0.27 0.15 0.11 0.11 0.06 0.01 0.00 0.00 0.00 0.00 0.00 0.02 0.02 0.04 0.07 0.10 0.11 0.08 0.06 0.02 0.01 0.02 0.03 0.06 0.11
0.61 0.60 0.47 0.36 0.31 0.50 0.65 0.58 0.31 0.27 0.55 0.49 0.35 0.40 0.48 0.45 0.32 0.29 0.30 0.23 0.15 0.09 0.06 0.05 0.03 0.01 0.00 0.00 0.00 0.00 0.01 0.01 0.03 0.07 0.16 0.15 0.08 0.04 0.02 0.02 0.03 0.04 0.03
0.76 0.56 0.66 0.66 0.43 0.40 0.51 0.50 0.38 0.32 0.75 0.61 0.54 0.27 0.18 0.21 0.37 0.37 0.27 0.31 0.28 0.16 0.06 0.04 0.04 0.03 0.03 0.01 0.00 0.00 0.00 0.00 0.00 0.01 0.03 0.07 0.10 0.09 0.06 0.06 0.05 0.05 0.06
1.01 0.83 0.74 0.79 0.64 0.48 0.54 0.73 0.62 0.55 0.73 0.50 0.26 0.27 0.21 0.21 0.31 0.32 0.32 0.30 0.30 0.19 0.12 0.05 0.03 0.03 0.07 0.07 0.07 0.06 0.04 0.01 0.00 0.00 0.01 0.02 0.05 0.08 0.09 0.09 0.10 0.10 0.12
1.12 1.08 1.01 0.89 0.71 0.57 0.53 0.65 0.73 0.82 0.79 0.73 0.52 0.46 0.36 0.29 0.22 0.26 0.26 0.27 0.34 0.27 0.18 0.10 0.02 0.02 0.07 0.10 0.12 0.10 0.09 0.08 0.07 0.03 0.01 0.01 0.02 0.04 0.08 0.12 0.14 0.16 0.18
1.35 0.90 0.88 0.85 0.76 0.60 0.50 0.51 0.62 0.58 0.59 0.57 0.50 0.43 0.32 0.27 0.29 0.36 0.40 0.38 0.34 0.20 0.15 0.08 0.00 0.00 0.07 0.20 0.22 0.22 0.19 0.13 0.10 0.09 0.09 0.08 0.06 0.05 0.06 0.07 0.10 0.14 0.21
0.88 0.64 0.76 0.81 0.78 0.70 0.64 0.53 0.54 0.47 0.45 0.49 0.45 0.42 0.36 0.25 0.21 0.22 0.25 0.33 0.36 0.19 0.09 0.05 0.00 0.00 0.00 0.03 0.11 0.17 0.15 0.10 0.11 0.16 0.19 0.16 0.11 0.08 0.07 0.05 0.04 0.04 0.06
0.81 0.73 0.80 0.81 0.85 0.80 0.70 0.69 0.59 0.54 0.49 0.50 0.47 0.48 0.38 0.24 0.19 0.18 0.19 0.25 0.47 0.38 0.10 0.02 0.01 0.00 0.01 0.01 0.04 0.09 0.15 0.13 0.08 0.07 0.07 0.09 0.11 0.11 0.11 0.09 0.07 0.04 0.03
0.74 0.82 0.87 0.81 0.80 0.85 0.83 0.76 0.66 0.60 0.57 0.54 0.48 0.51 0.50 0.38 0.35 0.29 0.29 0.28 0.31 0.47 0.36 0.07 0.05 0.05 0.07 0.07 0.04 0.08 0.07 0.09 0.06 0.05 0.07 0.08 0.08 0.08 0.10 0.10 0.09 0.13 0.11
0.83 0.89 0.91 0.87 0.85 0.86 0.90 0.95 0.79 0.70 0.72 0.71 0.68 0.68 0.56 0.49 0.48 0.47 0.51 0.56 0.57 0.62 0.61 0.28 0.16 0.15 0.18 0.12 0.07 0.05 0.07 0.06 0.06 0.08 0.11 0.13 0.14 0.12 0.12 0.14 0.13 0.14 0.16
0.34 0.37 0.49 0.67 0.67 0.88 0.92 1.01 0.99 0.80 0.76 0.93 0.95 0.88 0.80 0.76 0.75 0.61 0.57 0.48 0.40 0.34 0.41 0.34 0.15 0.11 0.11 0.14 0.13 0.09 0.07 0.06 0.09 0.13 0.16 0.13 0.18 0.21 0.14 0.10 0.14 0.15 0.12
0.31 0.25 0.29 0.37 0.42 0.60 0.91 0.96 1.02 0.94 1.01 1.04 0.98 0.88 0.74 0.74 0.74 0.57 0.43 0.34 0.27 0.29 0.31 0.40 0.27 0.15 0.13 0.14 0.17 0.14 0.12 0.14 0.09 0.10 0.17 0.19 0.20 0.18 0.27 0.22 0.18 0.19 0.21
0.21 0.18 0.16 0.22 0.30 0.40 0.65 0.91 1.00 1.02 0.76 0.72 0.77 0.73 0.72 0.65 0.50 0.47 0.43 0.35 0.34 0.39 0.39 0.38 0.40 0.28 0.19 0.15 0.23 0.24 0.21 0.21 0.25 0.25 0.27 0.27 0.33 0.33 0.34 0.45 0.48 0.41 0.34
0.19 0.20 0.17 0.16 0.25 0.40 0.59 0.66 0.69 0.75 0.78 0.69 0.59 0.70 0.70 0.80 0.79 0.61 0.48 0.48 0.47 0.53 0.54 0.54 0.50 0.38 0.32 0.31 0.33 0.33 0.40 0.38 0.42 0.41 0.35 0.28 0.30 0.39 0.48 0.62 0.64 0.61 0.60
0.26 0.24 0.25 0.35 0.46 0.45 0.56 0.49 0.66 0.92 0.91 0.91 0.83 0.72 0.90 1.03 0.94 1.03 0.78 0.66 0.70 0.78 0.73 0.62 0.58 0.59 0.47 0.47 0.51 0.62 0.69 0.63 0.63 0.53 0.55 0.54 0.47 0.51 0.54 0.64 0.99 0.85 0.66
0.43 0.42 0.50 0.49 0.34 0.19 0.44 0.40 0.53 0.65 1.03 0.96 1.09 1.03 0.95 0.95 0.99 0.86 0.98 0.92 0.85 0.86 0.84 0.75 0.79 0.72 0.71 0.70 0.85 1.05 1.15 1.21 1.20 1.07 1.08 1.06 0.83 0.75 0.66 0.77 0.98 0.67 0.62
0.60 0.56 0.46 0.35 0.31 0.39 0.46 0.40 0.55 0.38 0.51 0.73 0.82 0.90 0.97 0.94 1.01 0.95 0.84 0.90 0.86 0.90 0.96 0.97 1.18 1.46 1.59 1.60 1.70 1.77 1.83 1.88 1.84 1.60 1.35 1.26 1.01 0.90 0.76 0.70 0.96 0.65 0.57
0.40 0.37 0.39 0.35 0.33 0.36 0.58 0.38 0.36 0.19 0.40 0.63 0.78 0.98 1.20 1.16 1.78 1.70 1.23 1.41 1.71 1.81 2.09 1.94 1.69 1.74 1.69 1.49 1.30 1.22 1.31 1.47 1.66 1.43 1.20 1.18 1.10 1.04 0.96 0.88 0.86 0.76 0.52
0.38 0.32 0.34 0.26 0.48 0.29 0.60 0.42 0.37 0.17 0.40 0.61 0.79 0.98 1.58 1.29 1.77 1.66 1.45 1.32 1.74 2.03 1.82 1.82 1.76 1.61 1.36 1.22 1.27 1.03 1.00 1.24 1.29 1.29 1.06 1.15 1.00 1.02 1.01 0.74 0.64 0.55 0.42

GFSMA_prec_precacc_111.txt.gz
Total_Precipitation_Accumulation
0.60 0.33 0.11 0.14 0.17 0.11 0.21 0.41 0.68 0.57 0.43 0.36 0.37 0.37 0.15 0.15 0.24 0.20 0.23 0.50 0.50 0.52 0.26 0.06 0.06 0.04 0.02 0.02 0.04 0.02 0.01 0.02 0.02 0.06 0.08 0.09 0.11 0.16 0.19 0.21 0.22 0.17 0.21
0.36 0.32 0.17 0.15 0.12 0.12 0.19 0.33 0.60 0.60 0.55 0.35 0.36 0.23 0.13 0.15 0.14 0.17 0.17 0.28 0.50 0.54 0.43 0.17 0.09 0.06 0.04 0.03 0.04 0.02 0.02 0.03 0.02 0.03 0.06 0.09 0.09 0.10 0.13 0.16 0.24 0.29 0.23
0.23 0.27 0.29 0.32 0.19 0.11 0.21 0.41 0.57 0.74 0.61 0.47 0.33 0.21 0.18 0.19 0.13 0.10 0.17 0.18 0.21 0.38 0.44 0.45 0.16 0.09 0.07 0.03 0.03 0.02 0.02 0.04 0.03 0.03 0.03 0.06 0.07 0.07 0.12 0.11 0.17 0.28 0.35
0.27 0.25 0.32 0.48 0.43 0.23 0.19 0.28 0.44 0.78 0.57 0.38 0.27 0.23 0.20 0.21 0.15 0.13 0.11 0.17 0.23 0.19 0.25 0.38 0.22 0.07 0.06 0.04 0.03 0.02 0.02 0.03 0.03 0.03 0.03 0.03 0.04 0.05 0.06 0.09 0.19 0.41 0.42
0.30 0.20 0.31 0.42 0.47 0.41 0.30 0.24 0.36 0.50 0.51 0.40 0.25 0.18 0.17 0.13 0.13 0.16 0.15 0.16 0.26 0.33 0.20 0.21 0.13 0.05 0.04 0.05 0.04 0.04 0.04 0.04 0.04 0.03 0.02 0.02 0.02 0.04 0.06 0.15 0.26 0.36 0.41
0.35 0.21 0.31 0.60 0.53 0.46 0.32 0.23 0.39 0.48 0.38 0.43 0.50 0.23 0.24 0.18 0.13 0.12 0.14 0.21 0.25 0.43 0.39 0.17 0.08 0.02 0.01 0.04 0.04 0.04 0.06 0.06 0.06 0.04 0.03 0.03 0.02 0.02 0.03 0.07 0.25 0.46 0.48
0.50 0.32 0.25 0.42 0.80 0.63 0.39 0.22 0.32 0.50 0.60 0.42 0.72 0.76 0.48 0.35 0.19 0.16 0.14 0.17 0.20 0.23 0.46 0.41 0.12 0.01 0.00 0.01 0.03 0.03 0.05 0.07 0.08 0.08 0.06 0.04 0.04 0.02 0.01 0.02 0.06 0.15 0.39
0.59 0.51 0.26 0.21 0.40 0.69 0.72 0.39 0.29 0.47 0.52 0.48 0.50 0.59 0.81 0.84 0.54 0.32 0.28 0.16 0.15 0.16 0.14 0.33 0.29 0.07 0.00 0.00 0.00 0.02 0.03 0.05 0.07 0.12 0.12 0.09 0.07 0.03 0.01 0.02 0.03 0.06 0.12
0.61 0.60 0.47 0.37 0.31 0.51 0.66 0.59 0.32 0.27 0.56 0.50 0.36 0.41 0.48 0.46 0.32 0.29 0.31 0.24 0.16 0.11 0.09 0.12 0.12 0.05 0.01 0.00 0.00 0.00 0.01 0.02 0.05 0.08 0.17 0.16 0.08 0.04 0.02 0.03 0.03 0.04 0.03
0.77 0.56 0.66 0.66 0.44 0.40 0.51 0.52 0.40 0.33 0.76 0.62 0.58 0.28 0.18 0.21 0.37 0.37 0.27 0.32 0.33 0.22 0.11 0.13 0.10 0.07 0.04 0.01 0.00 0.00 0.00 0.01 0.01 0.02 0.04 0.08 0.10 0.09 0.06 0.06 0.06 0.06 0.06
1.03 0.87 0.75 0.80 0.64 0.48 0.54 0.74 0.62 0.57 0.74 0.51 0.27 0.28 0.22 0.21 0.31 0.32 0.33 0.32 0.35 0.28 0.22 0.13 0.14 0.12 0.07 0.07 0.07 0.06 0.04 0.01 0.00 0.01 0.02 0.02 0.05 0.08 0.10 0.10 0.10 0.10 0.12
1.18 1.13 1.06 0.95 0.75 0.59 0.53 0.66 0.74 0.83 0.80 0.74 0.53 0.46 0.36 0.30 0.23 0.26 0.26 0.29 0.39 0.35 0.27 0.22 0.11 0.09 0.08 0.10 0.12 0.10 0.09 0.08 0.07 0.03 0.01 0.02 0.02 0.04 0.08 0.12 0.14 0.16 0.18
1.37 0.91 0.90 0.88 0.79 0.62 0.52 0.51 0.63 0.60 0.61 0.59 0.51 0.44 0.33 0.27 0.29 0.37 0.40 0.41 0.40 0.27 0.21 0.16 0.13 0.06 0.08 0.20 0.22 0.22 0.19 0.13 0.10 0.09 0.09 0.08 0.06 0.05 0.07 0.08 0.10 0.15 0.21
0.91 0.67 0.82 0.95 0.86 0.76 0.67 0.54 0.56 0.48 0.47 0.51 0.46 0.44 0.38 0.26 0.23 0.23 0.26 0.34 0.39 0.23 0.11 0.07 0.04 0.05 0.01 0.03 0.11 0.17 0.15 0.10 0.11 0.16 0.19 0.16 0.11 0.08 0.07 0.05 0.04 0.04 0.06
0.85 0.77 0.89 0.89 0.90 0.82 0.74 0.71 0.61 0.56 0.51 0.52 0.49 0.50 0.41 0.25 0.20 0.19 0.20 0.26 0.48 0.41 0.13 0.03 0.02 0.01 0.01 0.01 0.04 0.09 0.15 0.13 0.08 0.07 0.07 0.09 0.11 0.11 0.11 0.09 0.07 0.04 0.03
0.75 0.84 0.91 0.84 0.85 0.87 0.85 0.79 0.69 0.62 0.60 0.57 0.51 0.53 0.52 0.40 0.36 0.30 0.30 0.30 0.34 0.51 0.41 0.08 0.06 0.06 0.08 0.07 0.04 0.08 0.07 0.09 0.06 0.05 0.07 0.08 0.08 0.08 0.10 0.10 0.09 0.13 0.11
0.85 0.90 0.91 0.88 0.87 0.88 0.92 0.98 0.82 0.74 0.75 0.73 0.70 0.70 0.57 0.50 0.49 0.47 0.52 0.57 0.59 0.64 0.65 0.29 0.17 0.17 0.20 0.14 0.08 0.05 0.07 0.06 0.06 0.08 0.11 0.13 0.14 0.12 0.12 0.14 0.13 0.14 0.16
0.38 0.41 0.53 0.68 0.69 0.90 0.94 1.02 1.01 0.82 0.78 0.94 0.96 0.88 0.80 0.77 0.76 0.61 0.57 0.49 0.42 0.36 0.45 0.38 0.17 0.14 0.14 0.15 0.13 0.09 0.07 0.06 0.09 0.13 0.16 0.13 0.18 0.21 0.14 0.10 0.14 0.15 0.12
0.42 0.40 0.41 0.44 0.44 0.61 0.92 0.97 1.02 0.95 1.02 1.05 0.99 0.90 0.77 0.77 0.76 0.59 0.46 0.38 0.30 0.31 0.35 0.47 0.35 0.21 0.15 0.15 0.17 0.14 0.12 0.14 0.09 0.10 0.17 0.19 0.20 0.18 0.27 0.22 0.18 0.19 0.21
0.34 0.31 0.25 0.28 0.32 0.41 0.65 0.92 1.00 1.02 0.76 0.72 0.77 0.74 0.74 0.69 0.55 0.52 0.50 0.40 0.40 0.45 0.45 0.43 0.48 0.38 0.27 0.17 0.23 0.24 0.21 0.21 0.25 0.25 0.27 0.27 0.33 0.33 0.34 0.45 0.48 0.41 0.34
0.27 0.27 0.23 0.19 0.27 0.40 0.60 0.67 0.69 0.75 0.78 0.69 0.59 0.70 0.70 0.81 0.82 0.64 0.55 0.57 0.55 0.63 0.67 0.67 0.63 0.46 0.40 0.36 0.35 0.34 0.41 0.38 0.42 0.41 0.35 0.28 0.30 0.40 0.48 0.62 0.64 0.61 0.60
0.35 0.34 0.33 0.40 0.47 0.46 0.58 0.50 0.67 0.93 0.92 0.91 0.83 0.72 0.90 1.06 0.98 1.07 0.85 0.75 0.80 0.87 0.84 0.72 0.70 0.70 0.54 0.51 0.54 0.67 0.74 0.65 0.63 0.54 0.55 0.56 0.50 0.53 0.56 0.66 1.01 0.86 0.66
0.56 0.53 0.57 0.51 0.36 0.20 0.46 0.41 0.55 0.66 1.03 0.96 1.09 1.03 0.95 0.99 1.10 0.98 1.19 1.22 1.16 1.11 0.98 0.85 0.88 0.79 0.77 0.75 0.89 1.13 1.24 1.28 1.25 1.09 1.12 1.12 0.92 0.84 0.76 0.87 1.07 0.70 0.63
0.72 0.60 0.48 0.37 0.33 0.41 0.47 0.41 0.57 0.39 0.52 0.73 0.82 0.90 0.97 0.96 1.07 1.07 1.04 1.15 1.16 1.23 1.29 1.23 1.34 1.61 1.73 1.74 1.88 1.93 1.95 2.01 2.01 1.76 1.48 1.38 1.13 1.04 0.90 0.82 1.06 0.68 0.58
0.43 0.38 0.41 0.36 0.34 0.37 0.59 0.40 0.37 0.19 0.41 0.64 0.78 0.98 1.20 1.18 1.87 1.85 1.44 1.62 1.93 2.04 2.40 2.26 1.99 2.02 1.96 1.80 1.63 1.48 1.51 1.67 1.89 1.62 1.36 1.34 1.26 1.21 1.13 1.00 0.93 0.81 0.54
0.45 0.37 0.38 0.29 0.50 0.30 0.63 0.46 0.40 0.18 0.42 0.62 0.80 0.99 1.59 1.31 1.81 1.73 1.55 1.46 1.94 2.32 2.17 2.25 2.20 1.99 1.79 1.65 1.68 1.40 1.31 1.50 1.50 1.50 1.22 1.29 1.16 1.16 1.16 0.86 0.71 0.60 0.45

GFSMA_prec_precacc_114.txt.gz
Total_Precipitation_Accumulation
0.60 0.33 0.12 0.14 0.18 0.12 0.23 0.42 0.68 0.57 0.43 0.36 0.37 0.38 0.16 0.15 0.24 0.21 0.26 0.57 0.61 0.65 0.43 0.18 0.08 0.04 0.02 0.02 0.04 0.02 0.01 0.02 0.03 0.06 0.08 0.09 0.11 0.16 0.19 0.21 0.22 0.17 0.21
0.36 0.32 0.17 0.15 0.13 0.12 0.20 0.34 0.60 0.60 0.55 0.35 0.36 0.24 0.15 0.17 0.17 0.18 0.19 0.34 0.53 0.67 0.53 0.35 0.19 0.08 0.05 0.04 0.04 0.02 0.02 0.04 0.03 0.03 0.06 0.10 0.09 0.11 0.13 0.16 0.24 0.29 0.24
0.23 0.27 0.29 0.32 0.19 0.12 0.21 0.41 0.58 0.75 0.61 0.47 0.35 0.23 0.21 0.22 0.17 0.13 0.19 0.18 0.22 0.39 0.53 0.77 0.77 0.38 0.09 0.04 0.03 0.02 0.02 0.04 0.04 0.03 0.03 0.07 0.07 0.07 0.12 0.11 0.17 0.28 0.35
0.27 0.26 0.32 0.48 0.43 0.23 0.19 0.29 0.45 0.78 0.57 0.39 0.29 0.26 0.23 0.26 0.19 0.16 0.13 0.17 0.23 0.19 0.26 0.52 1.45 1.45 0.20 0.04 0.03 0.02 0.02 0.04 0.03 0.04 0.03 0.03 0.04 0.06 0.06 0.09 0.20 0.41 0.42
0.30 0.20 0.32 0.43 0.47 0.41 0.30 0.24 0.36 0.51 0.52 0.41 0.26 0.19 0.20 0.17 0.16 0.19 0.19 0.18 0.26 0.33 0.22 0.26 0.58 0.87 0.36 0.07 0.05 0.05 0.05 0.04 0.04 0.03 0.03 0.02 0.02 0.04 0.06 0.16 0.26 0.36 0.41
0.35 0.22 0.31 0.60 0.53 0.46 0.33 0.23 0.39 0.48 0.38 0.44 0.51 0.24 0.26 0.21 0.16 0.13 0.17 0.25 0.27 0.44 0.45 0.31 0.34 0.42 0.29 0.08 0.04 0.05 0.06 0.07 0.07 0.05 0.04 0.04 0.02 0.02 0.03 0.07 0.26 0.46 0.49
0.50 0.32 0.25 0.42 0.80 0.63 0.40 0.23 0.33 0.50 0.60 0.43 0.73 0.76 0.49 0.35 0.20 0.17 0.14 0.17 0.20 0.25 0.58 0.60 0.32 0.32 0.36 0.05 0.03 0.03 0.06 0.08 0.09 0.09 0.07 0.05 0.04 0.02 0.01 0.03 0.06 0.16 0.40
0.59 0.51 0.26 0.21 0.40 0.70 0.72 0.39 0.29 0.47 0.52 0.49 0.51 0.59 0.82 0.85 0.55 0.33 0.29 0.17 0.16 0.22 0.21 0.39 0.43 0.31 0.30 0.12 0.00 0.02 0.04 0.06 0.08 0.12 0.13 0.09 0.07 0.03 0.01 0.02 0.03 0.06 0.12
0.61 0.60 0.47 0.37 0.31 0.51 0.66 0.59 0.32 0.27 0.57 0.51 0.38 0.41 0.48 0.46 0.33 0.30 0.31 0.24 0.18 0.14 0.16 0.17 0.22 0.22 0.18 0.17 0.02 0.00 0.02 0.03 0.06 0.09 0.17 0.16 0.09 0.04 0.02 0.03 0.04 0.05 0.03
0.77 0.56 0.67 0.67 0.45 0.41 0.52 0.52 0.40 0.33 0.76 0.63 0.59 0.29 0.18 0.21 0.38 0.38 0.28 0.33 0.34 0.23 0.13 0.17 0.13 0.15 0.14 0.08 0.02 0.00 0.00 0.01 0.02 0.03 0.04 0.08 0.11 0.10 0.06 0.06 0.06 0.06 0.06
1.03 0.87 0.75 0.80 0.65 0.48 0.55 0.74 0.63 0.57 0.74 0.51 0.27 0.29 0.22 0.22 0.32 0.34 0.34 0.32 0.36 0.29 0.23 0.14 0.16 0.16 0.17 0.14 0.09 0.07 0.04 0.01 0.00 0.02 0.03 0.03 0.05 0.08 0.10 0.10 0.11 0.11 0.12
1.18 1.14 1.07 0.95 0.76 0.59 0.53 0.66 0.75 0.83 0.80 0.74 0.53 0.47 0.37 0.30 0.23 0.27 0.27 0.29 0.40 0.35 0.28 0.23 0.14 0.14 0.18 0.20 0.18 0.11 0.09 0.08 0.07 0.03 0.02 0.02 0.03 0.04 0.08 0.12 0.15 0.16 0.18
1.37 0.91 0.91 0.89 0.81 0.64 0.59 0.56 0.66 0.60 0.61 0.59 0.51 0.44 0.33 0.28 0.30 0.37 0.41 0.42 0.41 0.28 0.22 0.16 0.14 0.11 0.18 0.29 0.29 0.25 0.19 0.13 0.10 0.09 0.09 0.08 0.07 0.05 0.07 0.08 0.10 0.15 0.22
0.91 0.67 0.83 0.97 0.92 0.83 0.73 0.57 0.60 0.53 0.49 0.52 0.46 0.44 0.38 0.26 0.23 0.23 0.27 0.35 0.39 0.23 0.12 0.07 0.04 0.05 0.07 0.11 0.16 0.20 0.16 0.10 0.11 0.16 0.19 0.16 0.11 0.09 0.07 0.05 0.04 0.05 0.06
0.86 0.77 0.90 0.94 0.94 0.83 0.76 0.73 0.63 0.59 0.55 0.54 0.50 0.50 0.41 0.26 0.21 0.19 0.21 0.26 0.50 0.43 0.13 0.04 0.03 0.03 0.03 0.03 0.07 0.11 0.16 0.13 0.08 0.07 0.07 0.09 0.11 0.11 0.11 0.09 0.07 0.04 0.03
0.76 0.85 0.91 0.87 0.87 0.90 0.88 0.82 0.75 0.70 0.64 0.59 0.52 0.53 0.53 0.40 0.36 0.30 0.30 0.30 0.35 0.53 0.42 0.08 0.06 0.06 0.10 0.10 0.06 0.11 0.08 0.09 0.06 0.05 0.07 0.08 0.08 0.08 0.10 0.10 0.09 0.13 0.11
0.90 0.91 0.92 0.89 0.90 0.95 0.96 1.02 0.87 0.79 0.79 0.74 0.71 0.71 0.58 0.51 0.49 0.48 0.52 0.58 0.60 0.65 0.67 0.30 0.18 0.17 0.22 0.16 0.10 0.08 0.08 0.07 0.06 0.08 0.11 0.13 0.14 0.12 0.12 0.14 0.13 0.14 0.16
0.43 0.42 0.55 0.71 0.73 1.00 1.06 1.12 1.08 0.85 0.81 0.96 0.98 0.91 0.82 0.79 0.77 0.63 0.59 0.50 0.43 0.38 0.46 0.38 0.19 0.15 0.15 0.16 0.15 0.11 0.08 0.06 0.09 0.13 0.16 0.13 0.18 0.21 0.14 0.10 0.14 0.15 0.12
0.54 0.50 0.55 0.56 0.57 0.73 1.01 1.05 1.08 0.98 1.04 1.06 1.01 0.92 0.79 0.80 0.79 0.62 0.50 0.40 0.31 0.32 0.36 0.48 0.35 0.22 0.17 0.18 0.27 0.25 0.17 0.16 0.10 0.10 0.17 0.19 0.20 0.18 0.27 0.22 0.18 0.19 0.21
0.50 0.47 0.40 0.41 0.42 0.47 0.69 0.94 1.02 1.03 0.77 0.73 0.78 0.74 0.74 0.70 0.56 0.54 0.53 0.44 0.43 0.48 0.46 0.45 0.50 0.39 0.29 0.21 0.28 0.33 0.34 0.31 0.28 0.25 0.27 0.27 0.33 0.33 0.34 0.45 0.48 0.41 0.34
0.34 0.34 0.27 0.24 0.32 0.44 0.62 0.68 0.70 0.76 0.79 0.70 0.59 0.71 0.70 0.81 0.82 0.65 0.58 0.61 0.62 0.70 0.73 0.75 0.71 0.52 0.44 0.41 0.42 0.39 0.45 0.41 0.44 0.42 0.35 0.28 0.30 0.40 0.48 0.63 0.64 0.61 0.60
0.41 0.38 0.37 0.44 0.52 0.49 0.60 0.52 0.68 0.94 0.92 0.91 0.83 0.72 0.90 1.06 0.98 1.07 0.85 0.77 0.85 0.94 0.91 0.80 0.77 0.78 0.57 0.53 0.57 0.71 0.79 0.70 0.67 0.56 0.58 0.57 0.50 0.54 0.56 0.66 1.02 0.86 0.67
0.66 0.62 0.70 0.66 0.48 0.28 0.52 0.45 0.57 0.66 1.03 0.97 1.10 1.03 0.95 0.99 1.10 0.98 1.19 1.23 1.24 1.30 1.16 0.97 0.98 0.86 0.82 0.80 0.96 1.22 1.32 1.30 1.28 1.12 1.18 1.24 0.99 0.88 0.76 0.88 1.09 0.72 0.65
0.95 0.75 0.66 0.54 0.45 0.49 0.57 0.48 0.60 0.39 0.52 0.73 0.82 0.90 0.97 0.96 1.07 1.07 1.04 1.16 1.20 1.30 1.41 1.44 1.57 1.79 1.87 1.83 1.98 2.08 2.14 2.17 2.19 1.95 1.70 1.59 1.25 1.10 0.95 0.87 1.14 0.73 0.61
0.77 0.64 0.53 0.48 0.39 0.39 0.61 0.41 0.39 0.20 0.42 0.65 0.78 0.99 1.20 1.18 1.87 1.85 1.44 1.65 1.99 2.13 2.51 2.49 2.35 2.32 2.23 2.07 1.89 1.79 1.99 2.00 2.22 1.89 1.63 1.59 1.43 1.33 1.22 1.09 1.03 0.91 0.60
0.74 0.63 0.53 0.39 0.60 0.37 0.71 0.51 0.43 0.20 0.44 0.64 0.81 1.00 1.61 1.31 1.82 1.73 1.55 1.47 1.95 2.36 2.23 2.34 2.40 2.26 2.12 2.07 2.19 1.86 1.65 1.75 1.76 1.82 1.50 1.57 1.44 1.37 1.35 1.03 0.84 0.70 0.52

GFSMA_prec_precacc_117.txt.gz
Total_Precipitation_Accumulation
0.60 0.33 0.12 0.14 0.18 0.13 0.25 0.43 0.68 0.57 0.43 0.36 0.37 0.39 0.17 0.15 0.24 0.21 0.29 0.60 0.61 0.65 0.47 0.23 0.11 0.07 0.02 0.03 0.04 0.02 0.01 0.02 0.03 0.06 0.08 0.09 0.11 0.17 0.19 0.21 0.22 0.17 0.21
0.36 0.32 0.17 0.15 0.13 0.12 0.20 0.36 0.61 0.61 0.55 0.36 0.37 0.24 0.16 0.18 0.17 0.18 0.20 0.41 0.54 0.67 0.54 0.46 0.30 0.12 0.08 0.07 0.04 0.02 0.02 0.04 0.03 0.03 0.06 0.10 0.09 0.11 0.13 0.16 0.24 0.29 0.24
0.23 0.27 0.29 0.32 0.19 0.12 0.21 0.41 0.59 0.75 0.62 0.49 0.36 0.24 0.23 0.24 0.18 0.14 0.19 0.19 0.24 0.39 0.54 0.86 0.97 0.81 0.68 0.36 0.12 0.03 0.02 0.04 0.04 0.04 0.04 0.07 0.07 0.07 0.12 0.11 0.17 0.28 0.35
0.27 0.26 0.32 0.48 0.43 0.23 0.20 0.29 0.45 0.79 0.58 0.40 0.30 0.26 0.24 0.26 0.19 0.17 0.13 0.18 0.25 0.21 0.27 0.56 1.52 2.12 1.74 0.81 0.31 0.13 0.02 0.04 0.04 0.04 0.04 0.04 0.04 0.06 0.06 0.09 0.20 0.41 0.43
0.30 0.20 0.32 0.43 0.47 0.41 0.31 0.25 0.36 0.51 0.53 0.42 0.27 0.20 0.21 0.17 0.16 0.20 0.20 0.22 0.29 0.34 0.23 0.27 0.59 1.00 0.73 0.51 0.21 0.07 0.05 0.05 0.05 0.04 0.03 0.02 0.02 0.05 0.06 0.16 0.26 0.36 0.42
0.35 0.22 0.31 0.60 0.54 0.46 0.33 0.23 0.40 0.49 0.39 0.44 0.52 0.25 0.27 0.21 0.16 0.13 0.17 0.26 0.29 0.48 0.49 0.34 0.39 0.47 0.46 0.42 0.31 0.10 0.07 0.07 0.08 0.05 0.04 0.04 0.03 0.02 0.03 0.08 0.26 0.46 0.49
0.50 0.32 0.25 0.43 0.81 0.63 0.40 0.23 0.33 0.51 0.61 0.44 0.75 0.78 0.51 0.37 0.20 0.17 0.15 0.18 0.21 0.27 0.61 0.62 0.34 0.37 0.50 0.31 0.25 0.23 0.07 0.09 0.10 0.10 0.07 0.06 0.05 0.03 0.02 0.03 0.07 0.16 0.40
0.59 0.51 0.26 0.21 0.41 0.70 0.73 0.39 0.29 0.48 0.54 0.51 0.52 0.60 0.83 0.86 0.56 0.33 0.29 0.17 0.16 0.23 0.22 0.40 0.43 0.32 0.44 0.58 0.19 0.12 0.07 0.07 0.09 0.13 0.13 0.10 0.07 0.03 0.02 0.03 0.04 0.06 0.12
0.61 0.60 0.47 0.37 0.32 0.52 0.66 0.59 0.32 0.27 0.59 0.53 0.38 0.41 0.49 0.46 0.33 0.30 0.31 0.25 0.18 0.16 0.16 0.18 0.22 0.24 0.24 0.43 0.54 0.13 0.02 0.04 0.06 0.09 0.18 0.16 0.09 0.04 0.02 0.03 0.04 0.05 0.03
0.77 0.56 0.67 0.67 0.45 0.41 0.52 0.52 0.40 0.34 0.77 0.63 0.60 0.29 0.18 0.21 0.38 0.39 0.29 0.33 0.34 0.25 0.14 0.17 0.14 0.16 0.17 0.14 0.26 0.35 0.08 0.01 0.02 0.03 0.05 0.08 0.11 0.10 0.06 0.06 0.07 0.07 0.07
1.04 0.88 0.75 0.81 0.65 0.49 0.55 0.74 0.63 0.57 0.75 0.52 0.27 0.29 0.23 0.22 0.32 0.34 0.36 0.33 0.36 0.29 0.23 0.15 0.16 0.16 0.17 0.16 0.13 0.14 0.11 0.03 0.00 0.02 0.03 0.03 0.05 0.09 0.10 0.10 0.11 0.11 0.13
1.19 1.14 1.07 0.96 0.77 0.60 0.54 0.67 0.75 0.84 0.81 0.74 0.54 0.47 0.37 0.30 0.23 0.27 0.27 0.30 0.41 0.36 0.28 0.24 0.14 0.14 0.19 0.20 0.21 0.16 0.13 0.10 0.07 0.03 0.02 0.03 0.03 0.04 0.08 0.12 0.15 0.17 0.18
1.38 0.92 0.91 0.89 0.81 0.64 0.59 0.57 0.67 0.61 0.63 0.59 0.52 0.46 0.35 0.28 0.30 0.39 0.43 0.43 0.42 0.29 0.24 0.17 0.14 0.11 0.19 0.30 0.31 0.30 0.24 0.17 0.11 0.09 0.09 0.08 0.07 0.06 0.07 0.08 0.10 0.15 0.22
0.92 0.68 0.84 0.98 0.93 0.84 0.75 0.58 0.60 0.55 0.52 0.52 0.47 0.46 0.41 0.29 0.27 0.25 0.29 0.37 0.42 0.24 0.13 0.08 0.05 0.06 0.07 0.11 0.18 0.25 0.20 0.16 0.15 0.16 0.19 0.16 0.11 0.09 0.07 0.05 0.04 0.05 0.07
0.89 0.79 0.91 0.95 0.95 0.85 0.78 0.74 0.64 0.60 0.57 0.54 0.50 0.52 0.44 0.29 0.26 0.25 0.25 0.31 0.53 0.46 0.15 0.04 0.03 0.03 0.03 0.03 0.08 0.13 0.18 0.16 0.11 0.08 0.08 0.09 0.11 0.11 0.11 0.09 0.07 0.04 0.03
0.85 0.91 0.92 0.87 0.89 0.93 0.92 0.85 0.77 0.71 0.68 0.61 0.53 0.54 0.55 0.44 0.40 0.34 0.35 0.35 0.38 0.56 0.45 0.09 0.07 0.07 0.11 0.11 0.06 0.11 0.09 0.12 0.08 0.06 0.08 0.08 0.08 0.08 0.10 0.10 0.09 0.13 0.11
1.08 1.01 0.97 0.90 0.91 0.97 0.98 1.06 0.90 0.84 0.87 0.78 0.74 0.73 0.59 0.52 0.50 0.50 0.56 0.60 0.61 0.67 0.68 0.30 0.18 0.18 0.24 0.17 0.11 0.08 0.09 0.10 0.07 0.09 0.11 0.13 0.14 0.12 0.12 0.14 0.13 0.14 0.16
0.66 0.58 0.69 0.79 0.75 1.02 1.10 1.16 1.12 0.94 0.94 1.06 1.05 0.98 0.85 0.81 0.79 0.65 0.62 0.52 0.44 0.39 0.48 0.39 0.20 0.16 0.16 0.17 0.15 0.11 0.09 0.08 0.11 0.16 0.17 0.13 0.18 0.21 0.14 0.10 0.14 0.15 0.12
0.82 0.76 0.82 0.81 0.69 0.83 1.13 1.18 1.20 1.12 1.20 1.23 1.09 0.99 0.83 0.85 0.84 0.68 0.56 0.46 0.35 0.34 0.39 0.50 0.36 0.23 0.18 0.19 0.27 0.25 0.19 0.20 0.15 0.17 0.22 0.21 0.20 0.18 0.27 0.22 0.18 0.19 0.21
0.71 0.70 0.55 0.49 0.49 0.52 0.72 0.98 1.08 1.11 0.82 0.79 0.82 0.81 0.81 0.75 0.58 0.56 0.55 0.46 0.45 0.50 0.48 0.47 0.51 0.40 0.30 0.21 0.29 0.34 0.37 0.40 0.44 0.38 0.34 0.29 0.34 0.33 0.34 0.45 0.48 0.41 0.34
0.55 0.54 0.46 0.40 0.45 0.52 0.70 0.76 0.77 0.82 0.85 0.75 0.63 0.74 0.74 0.83 0.83 0.65 0.58 0.61 0.62 0.71 0.75 0.77 0.73 0.54 0.45 0.42 0.43 0.40 0.47 0.46 0.50 0.47 0.41 0.33 0.32 0.41 0.48 0.63 0.64 0.61 0.60
0.52 0.49 0.46 0.54 0.65 0.62 0.76 0.66 0.78 0.98 0.95 0.94 0.85 0.74 0.92 1.07 0.98 1.07 0.85 0.77 0.85 0.94 0.92 0.82 0.81 0.81 0.60 0.55 0.58 0.73 0.85 0.80 0.75 0.61 0.62 0.66 0.61 0.62 0.60 0.66 1.02 0.87 0.67
0.75 0.72 0.78 0.71 0.53 0.35 0.63 0.58 0.72 0.74 1.07 1.00 1.12 1.05 0.96 0.99 1.10 0.98 1.19 1.23 1.24 1.30 1.18 0.99 1.02 0.92 0.90 0.86 1.00 1.27 1.40 1.36 1.31 1.16 1.23 1.39 1.18 1.05 0.90 0.96 1.15 0.76 0.68
1.15 0.89 0.76 0.60 0.51 0.61 0.72 0.68 0.87 0.65 0.69 0.78 0.83 0.92 0.98 0.97 1.07 1.07 1.04 1.16 1.20 1.30 1.41 1.45 1.60 1.83 1.94 1.90 2.06 2.16 2.23 2.31 2.32 2.11 1.86 1.85 1.48 1.33 1.17 1.05 1.32 0.85 0.69
1.44 1.12 0.83 0.69 0.60 0.54 0.76 0.56 0.57 0.40 0.60 0.78 0.86 1.02 1.20 1.18 1.87 1.85 1.44 1.65 1.99 2.13 2.51 2.49 2.36 2.35 2.29 2.17 2.01 1.95 2.33 2.28 2.42 2.08 1.78 1.78 1.67 1.58 1.48 1.32 1.19 1.06 0.72
1.16 1.12 0.96 0.70 0.88 0.64 0.90 0.68 0.54 0.28 0.52 0.71 0.86 1.04 1.65 1.33 1.82 1.73 1.55 1.47 1.95 2.36 2.23 2.34 2.40 2.27 2.15 2.14 2.36 2.17 1.95 1.98 1.93 2.07 1.75 1.78 1.65 1.59 1.66 1.31 1.01 0.83 0.65